Wind_Speed
13 6 16 20 17 21 15 18 24 23 20 16 17 16 16 16 15 15 15 11 9 12 11 19 19 19 17 21 17 20 19 19 22 20 21 21 20 26 32 33 42 33 23 30
9 17 20 20 18 20 20 19 23 25 16 1 9 13 15 16 12 12 14 14 12 11 14 14 19 18 17 23 21 20 22 23 24 21 18 19 25 25 35 30 35 28 28 28
15 14 13 19 22 21 19 20 20 23 20 14 10 15 17 19 16 13 14 9 10 14 15 17 15 19 21 22 24 21 22 25 26 23 23 23 21 24 25 31 31 30 31 32
11 17 17 19 23 19 19 19 23 23 19 12 14 12 15 17 19 17 14 11 11 10 14 19 17 18 22 20 27 24 25 29 28 30 25 30 24 26 30 29 28 31 32 35
4 10 18 17 23 18 17 12 19 22 17 16 19 11 12 14 15 17 19 14 16 15 11 18 19 21 23 22 26 27 28 29 28 30 25 28 27 26 27 27 25 31 33 36
16 8 10 22 23 19 18 6 24 21 14 14 18 16 12 14 14 14 9 8 8 16 12 14 21 25 23 25 24 23 30 30 28 32 30 30 29 31 30 29 25 26 31 37
15 19 22 19 16 16 18 13 8 7 12 11 16 14 12 14 9 3 4 5 5 11 11 11 18 16 22 26 27 26 28 28 31 31 33 33 31 30 30 36 30 29 28 31
2 5 18 10 15 14 13 16 8 6 4 14 19 9 15 17 16 3 3 3 4 10 9 10 15 15 21 26 27 26 27 25 30 33 31 34 32 30 30 33 35 32 33 33
5 6 12 14 13 17 18 20 25 17 12 8 9 18 11 5 5 6 8 7 7 8 12 10 11 15 21 26 28 28 26 28 29 30 32 32 35 34 31 31 33 36 35 32
9 11 14 16 16 18 17 13 12 6 4 6 4 8 2 9 9 7 5 4 4 5 4 14 13 16 23 25 27 28 28 27 32 31 31 32 33 33 34 34 35 35 36 38
11 12 7 13 15 17 14 15 12 12 11 4 1 5 4 5 7 9 10 6 4 5 4 8 11 17 23 23 25 28 26 27 28 32 31 32 32 34 33 34 36 37 38 38
8 7 10 14 8 4 14 17 15 6 13 12 9 1 5 5 11 12 7 14 11 7 8 4 6 10 18 18 21 25 25 24 27 30 32 33 33 34 35 35 36 38 38 39
11 5 9 6 9 8 14 17 19 13 4 4 5 5 6 8 7 7 11 14 12 13 11 5 5 6 12 17 18 20 24 24 24 27 30 30 33 35 37 37 38 38 37 37
10 9 11 9 7 5 11 16 19 18 7 7 8 8 7 7 11 8 7 6 10 10 15 16 14 4 6 14 18 19 21 25 25 25 27 31 35 37 38 38 36 39 38 37
3 7 9 14 16 17 21 14 14 12 14 5 6 12 8 12 10 4 5 9 14 15 15 15 15 14 15 8 12 19 21 24 26 27 28 30 31 33 34 37 39 39 39 39
3 3 11 6 12 12 16 12 13 21 20 12 8 12 10 10 7 8 11 14 14 13 13 14 15 16 16 20 22 24 11 22 25 28 31 27 30 31 36 36 34 36 38 40
4 5 5 4 12 11 10 11 16 13 12 12 6 9 4 10 1 8 13 12 12 11 13 14 15 14 19 26 30 29 27 24 20 26 28 29 29 31 33 33 33 37 38 36
12 4 4 4 4 4 4 3 14 6 4 6 5 3 5 9 9 15 14 12 11 11 12 12 10 16 22 25 28 30 33 32 27 19 25 26 27 30 30 30 35 35 34 34
14 10 3 4 4 4 5 4 6 13 5 11 12 7 8 6 7 12 14 12 12 13 13 12 20 20 21 24 26 24 23 29 24 30 31 19 28 29 28 29 32 32 30 30
18 14 9 5 5 3 2 11 7 6 7 10 8 9 7 4 9 8 10 15 14 14 19 17 20 19 20 23 23 20 22 24 27 33 33 32 36 28 31 31 32 30 30 30
16 14 15 10 6 7 5 3 2 8 5 9 11 11 12 8 10 11 14 13 15 17 21 22 21 21 22 24 23 21 21 23 24 25 27 29 29 24 16 13 16 23 21 19
15 11 8 11 8 12 6 1 3 11 10 10 12 10 8 11 12 12 14 14 15 15 21 23 20 21 24 26 24 22 23 23 21 25 27 28 28 25 20 13 14 15 19 20
8 12 6 10 9 6 12 15 12 12 11 10 10 10 10 11 11 12 12 15 15 19 21 22 21 21 24 27 26 21 23 20 20 30 31 32 30 27 24 24 19 19 17 18
7 7 11 5 11 13 15 14 14 14 13 11 10 11 11 10 13 11 14 13 13 19 21 22 22 22 23 24 24 23 20 16 18 25 32 32 31 32 29 30 30 26 21 17
3 2 3 5 10 14 13 13 13 16 13 11 12 13 13 12 12 12 12 13 14 18 19 20 20 20 21 22 24 26 26 18 17 20 25 34 29 25 32 41 33 33 38 28
0 6 2 4 3 9 16 13 16 14 12 12 12 12 14 13 12 12 11 14 15 15 16 17 19 19 19 21 24 27 29 26 22 23 23 25 31 17 24 28 37 46 47 47
Wind_Direction
231 239 233 225 232 250 255 280 290 288 236 240 209 240 251 239 234 201 208 217 243 182 177 162 163 166 186 167 179 167 174 170 163 158 151 149 146 145 152 161 175 170 179 176
221 227 252 242 234 236 246 260 272 278 272 261 268 251 259 266 254 250 205 196 204 196 169 155 156 167 183 164 171 176 172 179 177 168 162 154 150 152 149 151 166 169 183 181
220 232 238 302 245 240 238 248 259 270 285 273 220 266 263 262 265 241 246 193 210 192 171 158 164 175 182 175 173 174 178 184 185 167 160 153 148 147 159 167 175 182 184 180
261 254 249 280 279 239 237 242 257 267 273 265 246 258 263 232 226 237 225 195 200 244 177 162 167 178 181 187 165 173 179 181 184 177 160 165 160 171 178 182 180 180 185 198
239 233 206 247 271 265 260 289 291 285 260 267 265 268 268 276 273 214 216 201 202 195 189 164 168 178 182 183 165 170 177 183 183 181 171 169 175 181 184 187 190 188 190 190
254 251 222 238 243 249 270 280 271 265 266 246 247 257 259 260 270 230 189 196 242 185 178 165 163 171 179 174 167 183 170 180 183 183 185 183 183 177 183 191 196 203 195 194
257 250 258 258 262 246 226 230 250 240 241 243 241 242 239 255 263 49 125 185 211 148 162 167 159 167 174 170 169 182 176 181 183 183 186 189 191 185 185 192 197 200 206 206
215 289 221 237 234 207 227 225 231 197 243 241 226 236 241 226 234 100 50 307 186 164 157 172 169 168 173 171 174 182 182 184 182 187 187 190 191 192 194 193 200 203 207 214
213 246 197 199 245 246 186 219 247 275 289 285 261 206 222 167 138 182 190 175 206 169 170 180 177 168 174 172 178 183 185 187 188 187 191 194 196 197 199 198 199 206 210 210
257 275 269 233 190 238 249 224 241 228 242 215 293 163 193 207 198 162 113 100 31 358 291 173 178 168 175 177 179 183 188 192 186 194 194 197 200 197 200 201 203 204 208 212
270 248 262 298 199 206 227 239 226 246 225 190 183 250 133 0 85 83 55 47 35 70 327 174 172 166 171 177 181 183 192 192 190 185 196 201 200 203 205 200 204 206 210 210
323 263 244 253 265 316 267 244 233 242 210 249 256 261 108 58 34 26 19 43 34 50 33 341 145 155 164 177 184 184 192 199 195 193 191 198 206 204 205 207 209 207 207 210
346 271 253 272 287 263 242 226 227 232 270 261 271 217 236 111 63 30 30 35 9 359 22 21 131 166 162 178 191 195 192 203 207 198 197 197 201 207 211 211 210 211 212 213
333 270 279 253 274 250 245 207 221 238 218 230 229 251 49 278 321 59 31 24 5 352 26 16 15 30 163 181 193 199 201 202 207 212 206 203 203 206 212 214 212 213 215 215
141 285 328 307 291 275 226 255 184 202 230 189 280 279 246 237 257 319 63 36 45 27 18 7 9 6 13 357 199 202 209 205 204 211 219 217 210 210 211 214 217 217 219 220
233 277 314 306 299 282 272 216 246 190 213 235 208 255 27 114 249 82 61 56 48 36 15 14 15 12 5 0 357 356 268 214 207 212 223 224 220 215 216 218 218 217 217 219
273 312 331 294 323 315 257 229 186 213 264 238 178 257 170 236 12 39 84 67 57 41 27 23 11 5 10 9 2 353 339 334 230 217 222 224 226 222 222 221 220 223 223 223
257 289 289 291 295 234 348 226 236 234 277 317 110 52 83 19 44 83 69 62 50 40 38 24 18 28 15 3 355 344 340 331 327 292 229 226 227 230 229 222 224 228 227 226
230 227 254 267 248 289 291 303 290 201 141 70 284 130 107 87 81 47 44 49 39 41 38 16 40 32 18 4 349 343 350 353 337 357 351 272 223 227 230 227 227 227 227 229
217 210 202 226 252 256 189 211 180 281 140 65 36 35 31 14 85 50 25 45 33 39 38 14 32 31 22 6 358 359 0 0 354 344 339 343 358 232 222 224 226 227 223 227
199 197 206 222 241 266 237 91 298 209 100 65 60 35 27 34 45 41 48 38 39 27 29 17 35 29 17 7 3 9 6 4 351 348 346 351 354 354 14 213 217 212 195 179
188 194 195 218 229 242 106 215 321 97 76 70 68 52 48 48 38 40 46 35 32 27 29 19 23 22 17 11 8 7 6 355 7 16 12 7 6 10 18 56 83 115 131 129
225 203 185 185 214 83 73 89 82 91 87 73 71 55 41 41 40 31 44 35 30 27 24 20 23 19 16 12 11 5 359 5 24 43 28 19 18 21 32 39 52 71 93 97
230 230 219 275 204 140 101 96 88 85 82 78 63 58 48 43 42 28 37 28 25 22 19 20 22 22 18 12 10 9 5 12 31 53 54 30 25 28 36 44 46 42 52 66
241 273 249 191 46 88 102 74 92 83 65 63 67 63 47 44 46 43 39 32 29 27 26 30 31 27 21 19 15 17 24 27 38 49 64 71 38 28 49 54 55 63 60 59
341 350 231 63 13 135 90 69 77 75 67 59 54 53 60 43 50 58 54 46 42 40 40 45 42 38 28 27 27 29 36 41 44 50 51 64 74 54 60 69 63 63 73 78
Height
731 739 735 728 722 715 713 715 713 692 666 669 676 680 673 665 666 670 673 675 676 678 685 696 706 713 719 724 730 733 737 740 743 747 751 755 759 760 765 769 777 784 790 793
738 747 734 718 714 717 718 727 719 692 667 673 673 678 669 663 659 657 661 665 670 672 678 690 702 710 715 721 727 732 735 739 742 746 751 755 757 762 764 772 778 784 788 792
738 734 728 729 714 715 713 718 712 701 678 667 677 687 678 663 654 651 652 653 659 664 672 683 696 705 712 716 723 729 734 738 742 746 749 755 759 764 769 773 779 782 787 792
741 735 736 740 722 706 713 703 703 696 695 702 672 700 669 657 655 651 650 652 657 660 662 674 687 698 706 712 718 725 730 735 739 744 748 752 756 761 766 771 776 780 784 789
742 729 740 744 733 707 712 702 706 697 695 695 688 692 676 655 656 646 643 644 647 651 656 665 679 691 700 708 713 720 726 732 737 741 746 751 756 762 768 771 775 778 782 787
728 727 740 739 727 719 714 722 718 701 697 708 692 690 682 666 649 637 633 636 638 643 650 658 671 685 694 703 710 717 721 727 733 738 744 748 752 756 763 768 772 776 780 784
725 722 724 714 722 713 713 734 735 726 714 709 683 684 672 649 636 633 637 637 636 638 648 655 665 678 688 696 705 713 719 723 728 733 738 744 750 753 758 763 768 774 778 780
731 726 714 707 711 719 711 726 721 732 714 698 670 680 660 631 628 629 632 633 634 639 645 651 659 671 682 691 699 708 713 719 723 728 733 738 744 750 755 759 764 768 772 775
720 719 691 698 702 705 713 726 699 700 706 710 673 655 635 633 635 634 636 637 640 639 643 649 655 665 676 685 693 701 708 714 720 724 729 733 737 743 748 753 759 763 767 771
707 716 695 684 693 699 695 691 715 701 727 720 670 658 663 641 643 635 638 639 638 637 638 642 648 658 669 680 688 696 702 707 712 719 723 728 733 737 741 746 751 755 760 765
705 706 698 684 687 695 698 696 705 704 699 702 699 683 648 645 639 642 642 642 640 640 639 638 645 653 664 675 683 690 697 702 707 712 718 723 726 731 736 738 742 746 752 756
707 697 701 694 676 687 683 693 692 709 702 689 689 682 649 654 651 650 647 644 643 642 643 641 645 651 661 671 679 685 691 696 701 705 710 715 721 725 728 730 734 739 742 747
722 702 705 697 693 685 689 682 691 693 709 715 701 684 652 653 656 656 659 653 653 651 648 647 647 652 659 668 675 680 686 691 696 700 704 709 713 717 719 722 727 732 735 738
727 714 703 699 692 699 683 677 683 685 706 704 703 679 681 667 664 664 664 661 660 657 658 660 659 655 657 663 670 675 680 685 690 694 697 699 703 707 711 715 718 722 725 728
726 722 707 701 692 677 676 678 673 704 698 704 693 686 674 680 670 669 665 663 661 668 671 671 668 667 667 665 664 667 672 677 682 686 688 690 695 699 704 707 709 713 716 718
717 722 712 704 685 679 671 676 668 672 669 670 674 684 672 662 664 666 670 672 678 682 683 680 678 675 673 673 672 672 669 669 673 677 679 685 688 690 692 695 699 703 704 707
723 715 718 709 710 700 685 669 675 678 682 668 698 692 686 676 666 670 677 682 687 690 691 690 689 687 685 684 680 677 673 671 668 667 670 675 679 681 684 689 692 692 694 700
719 722 727 716 721 708 668 653 656 661 663 663 671 674 670 668 667 675 683 686 690 692 694 696 695 695 697 695 689 685 679 672 669 667 663 666 670 673 675 680 682 684 688 691
708 715 729 717 707 697 679 665 663 663 677 683 694 665 667 669 675 689 686 690 693 695 699 700 701 703 703 701 697 690 684 681 674 672 669 662 659 663 666 669 672 676 681 683
698 703 716 713 712 701 667 657 653 655 686 676 677 676 678 677 694 702 693 698 702 702 706 707 707 710 710 707 703 697 692 688 685 681 675 668 660 654 652 655 660 665 669 674
694 700 707 711 711 688 663 662 659 680 696 681 682 688 692 694 697 700 701 705 707 708 712 712 711 715 715 712 708 702 699 695 691 686 681 674 666 660 652 649 651 654 658 663
685 696 699 702 700 699 668 671 678 687 687 689 696 699 700 698 700 702 706 710 713 716 717 717 716 717 718 716 711 708 704 700 693 687 685 681 674 669 663 656 654 656 659 664
688 676 683 686 685 676 674 679 682 687 694 700 703 706 706 706 709 710 714 719 722 725 725 726 724 725 724 721 717 713 710 706 699 687 690 689 685 680 674 669 666 664 666 670
671 666 672 674 666 672 683 685 690 694 702 707 711 714 716 715 719 721 727 732 734 735 734 733 731 732 730 728 725 719 714 711 706 697 690 700 700 695 686 680 678 678 679 681
694 673 675 674 684 686 694 694 696 704 711 713 717 719 722 722 726 730 737 740 743 744 743 742 741 741 740 736 732 725 718 716 712 708 700 694 710 714 705 697 694 691 693 699
682 684 676 692 699 695 697 706 706 712 720 722 724 724 728 731 735 740 746 751 753 753 752 750 749 749 746 743 737 730 724 721 720 716 715 710 702 721 713 710 712 708 703 699